Regional Weather Roundup
Issued by NWS Albany, NY

Home | Current Version | Previous Version | Graphics & Text | Print | Product List | Glossary On
Versions: 1 2 3 4 5 6 7 8 9 10 11 12 13 14 15 16 17 18 19 20 21 22 23 24 25 26 27 28
000
ASUS41 KALY 281910
RWRALY

NEW YORK STATE HOURLY WEATHER ROUNDUP
NATIONAL WEATHER SERVICE ALBANY NY
300 PM EDT THU JUL 28 2016

NOTE: "FAIR" INDICATES FEW OR NO CLOUDS BELOW 12,000 FEET WITH NO
SIGNIFICANT WEATHER AND/OR NO OBSTRUCTIONS TO VISIBILITY.

NYZ032-033-038>043-046>054-057>066-NYZ062>081-082-084-282000-
EAST


CITY           SKY/WX    TMP DP  RH WIND       PRES   REMARKS
ALBANY         CLOUDY    90  62  39 SW10      29.84F HX  90
GLENS FALLS    CLOUDY    83  64  52 N14       29.85F
POUGHKEEPSIE   MOSUNNY   93  62  35 CALM      29.83F HX  93
NEWBURGH       MOSUNNY   90  64  43 CALM      29.87F HX  91
MONTGOMERY     SUNNY     92  64  39 VRB3      29.85F HX  93
WHITE PLAINS   MOSUNNY   88  63  43 S5        29.86F
ISLIP          MOSUNNY   85  73  67 S13       29.87F HX  91
NEW YORK CITY  MOSUNNY   93  62  35 S12G18    29.84F HX  93
CENTRAL PARK   MOSUNNY   92  65  40 VRB5      29.87F HX  94
$$

NYZ005>009-017-018-044>046-055-056-282000-
CENTRAL


CITY           SKY/WX    TMP DP  RH WIND       PRES   REMARKS
FULTON         CLOUDY    87  58  37 NW9       29.89F
SYRACUSE       CLOUDY    86  66  51 W7        29.86F
ROME           CLOUDY    84  66  54 W6        29.88F
ELMIRA         CLOUDY    87  57  35 N5        29.88F
BINGHAMTON     PTSUNNY   85  57  38 MISG      29.92F
MONTICELLO     MOSUNNY   84  61  45 CALM      29.93S
$$

NYZ026>034-041>043-087-282000-
NORTH


CITY           SKY/WX    TMP DP  RH WIND       PRES   REMARKS
WATERTOWN      CLOUDY    82  63  52 W8        29.87F
FORT DRUM      NOT AVBL
MASSENA        CLOUDY    77  65  66 N6        29.89F
SARANAC LAKE   PTSUNNY   74  65  73 VRB3      29.91F
PLATTSBURGH    PTSUNNY   72  67  84 CALM      29.88F
$$

NYZ001>004-010>016-019>021-085-282000-
WEST


CITY           SKY/WX    TMP DP  RH WIND       PRES   REMARKS
NIAGARA FALLS  CLOUDY    86  65  49 N9        29.88F
BUFFALO        CLOUDY    83  65  54 CALM      29.89F
DUNKIRK        CLOUDY    80  69  69 N9        29.90S
JAMESTOWN      CLOUDY    79  61  53 NE3       29.95S
WELLSVILLE     PTSUNNY   82  61  48 VRB6      29.97F
ROCHESTER      CLOUDY    85  62  46 NE12      29.89F
PENN YAN       PTSUNNY   83  66  56 CALM      29.91F
$$

             KEY
       WCI = WIND CHILL INDEX
       VSB = VISIBILITY
       HX  = HEAT INDEX
$$




USA.gov is the U.S. government's official web portal to all federal, state and local government web resources and services.